YAOGAN-43 01G

Last updated on Fri Sep 13 2024 00:02:03 GMT+0000 (Coordinated Universal Time)

1 60464U 24148G 24255.43863030 .00037521 00000+0 15618-2 0 9994 2 60464 35.0009 250.9236 0006123 166.4356 193.6524 15.22754108 3939

Satellite not in orbit

YAOGAN-43 01G